Location: Anan
(43.3550°N, 0.8171°E)
Time: 08:13:55
(UTC+00:00)

Cosmos 1953 Rocket - Pass Details

Date: 14 May 2026
Orbit: 597 x 628 km, 82.5° (Epoch: 5 June)

Event Time Altitude Azimuth Distance (km) Brightness Sun altitude
Rises 21:58:27 0° 355° (N) 2,877 8.1 -22.5°
Reaches altitude 10° 22:00:43 10° 360° (N) 1,963 7.0 -22.7°
Enters shadow 22:04:56 57° 75° (ENE) 711 3.7 -23.1°
